Terminal Aerodrome Forecast
Issued by NWS

Home | Current Version | Previous Version | Text Only | Print | Product List | Glossary On
Versions: 1 2 3 4 5 6 7 8 9 10 11 12 13 14 15 16 17 18 19 20 21 22 23 24 25 26 27 28 29
000
FTUS44 KOUN 202340
TAFWWR
TAF
KWWR 202340Z 2100/2124 17010KT P6SM SCT015 BKN250
     FM210500 17010KT 3SM BR OVC015
     FM210900 18012KT 1SM BR OVC004
      TEMPO 2110/2114 1/2SM FG OVC002=

USA.gov is the U.S. government's official web portal to all federal, state and local government web resources and services.